FENGYUN 1C DEB *, 47104

Orbit data source: Space-Track

FENGYUN 1C DEB *, 47104 is space debris in SSO originally from a launch on Mon, 10 May 1999 UTC launched from the Taiyaun Space Center, China (TSC). Fengyun 1C debris stems from the Chinese weather satellite Fengyun-1C, which was intentionally destroyed by a Chinese anti-satellite missile in 2007. This event dramatically increased the amount of space debris, with thousands of trackable fragments posing hazards to satellites and human spaceflight. The Fengyun 1C debris cloud has become a focal point in discussions about space sustainability and the need for international regulations to prevent the creation of new debris.

Loading next visibility...
Identifier
47104, 1999-025FCC
Orbit
SSO
Country
Flag of CNCN / PRC
Related business
Manufacturer
Unknown
Mission
Spacecraft
Bus & Motor
Unknown
Mass
Unknown
Launch date (UTC)
1999-05-10 (27 years ago)
Launch vehicle
Unknown
Launch site
Taiyaun Space Center, China (TSC)
Object type
Payload
Rocket body
Debris
Shape & HBR
Unknown shape, 0.1 m
Radar Cross Section
Small (<0.1 m²)

Expand to show TLE details & history
Last TLE update: 1 week ago

TLE from 1 week ago
0 FENGYUN 1C DEB *
1 47104U 99025FCC 26159.32765671  .00000354  00000-0  18746-3 0  9992
2 47104  98.8859 194.7044 0040815 185.7468 174.3244 14.19593071648925
Epoch: 2026-06-08T07:51Z
TLE epoch observation values (Epoch: 2026-06-08T07:51:49.539Z)
Latitude
-0.00011°
Longitude
-179.96809°
Altitude
858.907 km
Speed
7.408 km/s
True Right ascension
12h 58m 49s
True Declination
0° 00' 00"
Sunlit
Object was in daylight at epoch
Visualization orbit readout
Latitude
Unknown
Longitude
Unknown
Altitude
Unknown
Speed
Unknown
Apparent Right ascension
Unknown
Apparent Declination
Unknown
Sunlit
N/A
Visualization observer readout
Local Sidereal Time
23:24:26
Azimuth
Unknown
Elevation
Unknown
Doppler factor
Unknown
Orbital elements
Apogee altitude
853.292 km
Perigee altitude
794.502 km
Semi-major axis
7,202.034 km
Eccentricity
0.00408
Inclination
98.8859°
RAAN
194.7044°
Arg. of periapsis
185.7468°
True anomaly
174.37042°
Mean anomaly
174.3244°
Eccentric anomaly
174.34743°
Mean motion
3.55108 °/min
Orbital period
101.38 mins
BSTAR
0.00018746
Loading maneuver chart data...
Computing Atmospheric mass density...

Documentation

Showing up to 5 results
|